This is the latest recevied weather packets stored in our database for station/object K2CAT. If no packets are shown the sender has not sent any weather packets the latest 10 day(s).
| Time | Temp. | Humidity | Pressure | Rain* | Wind** | Luminosity | Snow |
|---|---|---|---|---|---|---|---|
| 1777384051 | 15° C | 57% | 1021.2 hPa | 0 mm | - | 83 W/m² | - |
| 1777383747 | 14.44° C | 55% | 1021.3 hPa | 0 mm | - | 154 W/m² | - |
| 1777383445 | 14.44° C | 59% | 1021.2 hPa | 0 mm | - | 66 W/m² | - |
| 1777383140 | 14.44° C | 57% | 1021.1 hPa | 0 mm | - | 296 W/m² | - |
| 1777382837 | 13.89° C | 56% | 1021 hPa | 0 mm | - | 175 W/m² | - |
| 1777382532 | 13.89° C | 57% | 1021 hPa | 0 mm | - | 128 W/m² | - |
| 1777382229 | 13.33° C | 60% | 1021.1 hPa | 0 mm | - | 79 W/m² | - |
| 1777381925 | 13.33° C | 60% | 1021.3 hPa | 0 mm | - | 69 W/m² | - |
| 1777381624 | 13.33° C | 62% | 1021.2 hPa | 0 mm | - | 57 W/m² | - |
| 1777381321 | 12.78° C | 64% | 1021.4 hPa | 0 mm | - | 106 W/m² | - |
| 1777381017 | 12.78° C | 64% | 1021.3 hPa | 0 mm | - | 56 W/m² | - |
| 1777380714 | 12.78° C | 65% | 1021.3 hPa | 0 mm | - | 47 W/m² | - |
| 1777380410 | 12.22° C | 65% | 1021.4 hPa | 0 mm | - | 66 W/m² | - |
| 1777380106 | 12.22° C | 66% | 1021.2 hPa | 0 mm | - | 75 W/m² | - |
| 1777379803 | 11.67° C | 67% | 1021.2 hPa | 0 mm | - | 58 W/m² | - |
| 1777379498 | 11.67° C | 68% | 1021.3 hPa | 0 mm | - | 62 W/m² | - |
| 1777379194 | 11.11° C | 69% | 1021.4 hPa | 0 mm | - | 38 W/m² | - |
| 1777378889 | 11.11° C | 70% | 1021.4 hPa | 0 mm | - | 39 W/m² | - |
| 1777378585 | 10.56° C | 70% | 1021.4 hPa | 0 mm | - | 34 W/m² | - |
| 1777378281 | 10.56° C | 73% | 1021.5 hPa | 0 mm | - | 71 W/m² | - |
| 1777377980 | 10° C | 74% | 1021.6 hPa | 0 mm | - | 46 W/m² | - |
| 1777377680 | 10° C | 74% | 1021.7 hPa | 0 mm | - | 32 W/m² | - |
| 1777377375 | 9.44° C | 75% | 1021.7 hPa | 0 mm | - | 43 W/m² | - |
| 1777377072 | 8.89° C | 77% | 1021.7 hPa | 0 mm | - | 55 W/m² | - |
| 1777376768 | 8.89° C | 78% | 1021.7 hPa | 0 mm | - | 30 W/m² | - |
* Rain latest hour (hover to see other rain measurements)
** Current wind speed in m/s (hover to see current wind gust speed)